Location: Columbia
(38.9520°N, 92.3340°W)
Time: 22:36:58
(UTC-05:00)

CZ-2C R/B - Visible Passes

Search period start: 17 September 2014 00:00
Search period end: 27 September 2014 00:00
Orbit: 706 x 909 km, 98.1° (Epoch: 17 September)

Date Brightness Start Highest point End Pass type
(mag) Time Alt. Az. Time Alt. Az. Time Alt. Az.
17 Sep 5.7 02:48:08 15° ENE 02:48:12 15° ENE 02:51:08 10° NNE visible
17 Sep 3.9 04:29:14 41° NNW 04:29:14 41° NNW 04:32:47 10° NNW visible
18 Sep 4.0 04:04:36 43° N 04:04:36 43° N 04:08:20 10° N visible
18 Sep 5.1 05:45:42 10° WNW 05:45:42 10° WNW 05:45:50 10° WNW visible
19 Sep 4.5 03:39:58 35° NNE 03:39:58 35° NNE 03:43:40 10° N visible
19 Sep 4.8 05:21:04 17° WNW 05:21:04 17° WNW 05:22:50 10° NW visible
20 Sep 5.2 03:15:21 24° NE 03:15:21 24° NE 03:18:45 10° NNE visible
20 Sep 4.5 04:56:27 25° NW 04:56:27 25° NW 04:59:01 10° NNW visible
21 Sep 5.7 02:50:44 16° NE 02:50:44 16° NE 02:53:25 10° NNE visible
21 Sep 4.3 04:31:50 32° NNW 04:31:50 32° NNW 04:34:50 10° NNW visible
22 Sep 4.3 04:07:13 35° N 04:07:13 35° N 04:10:24 10° N visible
23 Sep 4.7 03:42:36 31° NNE 03:42:36 31° NNE 03:45:46 10° N visible
23 Sep 5.0 05:23:42 14° NW 05:23:42 14° NW 05:24:48 10° NW visible
24 Sep 5.2 03:18:00 23° NE 03:18:00 23° NE 03:20:54 10° N visible
24 Sep 4.8 04:59:06 20° NW 04:59:06 20° NW 05:01:01 10° NNW visible
25 Sep 5.7 02:53:24 16° NE 02:53:24 16° NE 02:55:39 10° NNE visible
25 Sep 4.6 04:34:30 26° NNW 04:34:30 26° NNW 04:36:52 10° NNW visible
26 Sep 6.1 02:28:48 11° NE 02:28:48 11° NE 02:29:19 10° NE visible
26 Sep 4.7 04:09:54 28° N 04:09:54 28° N 04:12:29 10° N visible
